World > North America > United States > Florida   City of Boca Raton, FL

Boca Raton, Florida Regional Weather

Lat: 26.36N, Lon: 80.1W
Wx Zone: FLZ168Web Search
Boca Raton Weather Warning NWS WEATHER ALERT FOR THE BOCA RATON, FL AREA - Issued: 658 PM EST Thu Jan 21 2021 Boca Raton Weather Warning  

Helpful Tip: Type the letters wx in the search engine next time you need to find us.

Feedback
Boca Raton Weather Map
UTC Time: 1/22/2021, 02:59
Your Time:

Boca Raton, FL Regional Weather

Expires:202101220300;;287073
ASUS42 KTBW 220217
RWRFL 
FLORIDA REGIONAL WEATHER ROUNDUP
NATIONAL WEATHER SERVICE TAMPA BAY RUSKIN FL
900 PM EST THU JAN 21 2021

NOTE: "FAIR" INDICATES FEW OR NO CLOUDS BELOW 12,000 FEET WITH NO
SIGNIFICANT WEATHER AND/OR OBSTRUCTIONS TO VISIBILITY.


FLZ067-068-071>074-168-172>174-220300-
SOUTHEAST FLORIDA 
  
CITY           SKY/WX    TMP DP  RH WIND       PRES   REMARKS
W PALM BEACH   PTCLDY    66  58  75 SW3       30.07S                  
BOCA RATON     CLEAR     66  59  77 VRB7      30.07S                  
FT LAUDER-EXEC CLEAR     67  58  72 S5        30.08R                  
FT LAUDERDALE  PTCLDY    68  59  73 S6        30.08R                  
POMPANO BEACH  PTCLDY    67  59  75 S5        30.08R                  
PEMBROKE PINES CLEAR     66  59  78 SE3       30.09S                  
OPA LOCKA      CLEAR     63  56  78 S5        30.09S                  
MIAMI          PTCLDY    68  58  70 S3        30.09R                  
WEST KENDALL   CLEAR     61  55  81 CALM      30.09R                  
HOMESTEAD      NOT AVBL                                               

STATION/POSITION SKY/WX   TEMP    WIND        PRES    WAVE   SWELL
                          AIR SEA DIR/SP/G            HT/PER HT/PER
                          (F)     (DEG/KT/KT) (MB)    (FT/S) (FT/S)
VIRGINIA KEY               69 73  200/  3/  5 1019.3R
LAKE WORTH                 70 74  200/  6/  7 1017.6R
FOWEY ROCKS                71 71  180/  6/  6 1018.9R
SETTLEMENT POINT           72     220/ 11/ 13 1018.2F

$$

  

SKY/WX - Weather  TMP - Temperature  DP - Dew Point  RH - Relative Humidity
WIND - Wind Direction/Speed PRES - Barometric Pressure VSB - Visibility
WCI - Wind Chill Index E13G22 Wind - East Wind 13 mph/Gusts of 22 mph